Location: Newark
(47.5347°N, 5.5339°E)
Time: 16:26:12
(UTC+00:00)

ISS - Pass Details

Date: 01 October 2019
Orbit: 411 x 421 km, 51.6° (Epoch: 22 October)

Event Time Altitude Azimuth Distance (km) Brightness Sun altitude
Rises 20:07:02 0° 293° (WNW) 2,347 1.3 -28.3°
Reaches altitude 10° 20:09:08 10° 291° (WNW) 1,483 -0.1 -28.7°
Enters shadow 20:10:01 17° 288° (WNW) 1,131 -0.8 -28.8°
